{"data":{"norad_id":68686,"intl_designator":"2026-077AA","name":"STARLINK-37213","alt_names":[],"object_type":"PAYLOAD","status":"ACTIVE","operator":null,"country":"US","launch_date":"2026-04-11","launch_site_code":"AFWTR","launch_vehicle":null,"mission":null,"orbit_class":"UNKNOWN","rcs_meters":null,"size_class":null,"mass_kg":null,"dimensions":null,"purposes":["comms"],"wikipedia_slug":null,"has_3d_model":false,"image_url":null,"decayed_at":null,"tle_current":{"epoch":"2026-05-25T02:34:11.985024Z","epoch_age_seconds":79949,"freshness":"FRESH","line1":"1 68686U 26077AA  26145.10708316  .00010745  00000+0  33439-3 0  9991","line2":"2 68686  97.2860  16.7484 0000737 160.3244 199.8027 15.33472823  6870","mean_motion":15.33472823,"eccentricity":7.37e-5,"inclination_deg":97.286,"raan_deg":16.7484,"arg_perigee_deg":160.3244,"mean_anomaly_deg":199.8027,"bstar":0.00033439,"rev_number":687,"period_min":93.904500842921,"perigee_km":464.95602092898,"apogee_km":465.96476718487,"semimajor_km":6843.5973940569,"source":"CELESTRAK","updated_at":"2026-05-25T13:38:21.997061Z"}}}